Location: Borovka
(49.7741°N, 14.5280°E)
Time: 07:10:09
(UTC+00:00)

ATLAS 5 CENTAUR R/B - Pass Details

Date: 17 November 2025
Orbit: 373 x 1089 km, 63.3° (Epoch: 12 December)

Event Time Altitude Azimuth Distance (km) Brightness Sun altitude
Rises 16:53:54 0° 308° (NW) 2,787 5.5 -15.6°
Reaches altitude 10° 16:56:12 10° 295° (WNW) 1,998 5.0 -16.0°
Maximum altitude 17:00:02 27° 238° (WSW) 1,353 4.0 -16.6°
Drops below altitude 10° 17:04:32 10° 183° (S) 2,388 4.7 -17.3°
Sets 17:07:33 0° 172° (S) 3,453 5.4 -17.8°
